Overview Statistics Trail Chart Weather Telemetry Raw packets
 

This is the latest recevied weather packets stored in our database for station/object KF6RAL-6. If no packets are shown the sender has not sent any weather packets the latest 10 day(s).

<< 51 52 53 54 55 56 57 >>
Time Temp. Humidity Pressure Rain* Wind** Luminosity Snow
1788145658 22.78° C 54% 1014.9 hPa 0 mm - - -
1788145238 22.78° C 54% 1014.8 hPa 0 mm - - -
1788144816 23.33° C 51% 1014.8 hPa 0 mm - - -
1788143974 23.33° C 49% 1014.5 hPa 0 mm - - -
1788143553 22.78° C 50% 1014.5 hPa 0 mm - - -
1788143133 23.33° C 54% 1014.5 hPa 0 mm - - -
1788142711 23.33° C 54% 1014.3 hPa 0 mm - - -
1788141884 24.44° C 49% 1014.2 hPa 0 mm - - -
1788141448 24.44° C 46% 1013.8 hPa 0 mm - - -
1788141037 25° C 46% 1013.8 hPa 0 mm - - -
1788140606 25° C 45% 1013.8 hPa 0 mm - - -
1788140186 25° C 46% 1013.8 hPa 0 mm - - -
1788139765 25° C 47% 1013.8 hPa 0 mm - - -
1788139343 25.56° C 46% 1014.7 hPa 0 mm - - -
1788138922 25.56° C 45% 1014 hPa 0 mm - - -
1788138501 25.56° C 45% 1014 hPa 0 mm - - -
1788138082 25.56° C 45% 1014 hPa 0 mm - - -
1788137660 25.56° C 44% 1014.7 hPa 0 mm - - -
1788137238 25.56° C 44% 1014.7 hPa 0 mm - - -
1788136818 25.56° C 43% 1014.7 hPa 0 mm - - -
1788136399 25.56° C 44% 1014.7 hPa 0 mm - - -
1788135976 26.11° C 46% 1014.6 hPa 0 mm - - -
1788135554 25.56° C 44% 1014.8 hPa 0 mm - - -
1788135134 25.56° C 47% 1014.8 hPa 0 mm - - -
1788134712 25.56° C 48% 1014.6 hPa 0 mm - - -

* Rain latest hour (hover to see other rain measurements)
** Current wind speed in m/s (hover to see current wind gust speed)